Vorticity
6 6 7 7 7 7 7 7 7 7 7 7 6 6 6 6 5 5 4 4 4 4 4 4 5 5 5 5 5 5 5 5 5
6 6 6 6 6 6 6 6 6 6 6 6 5 5 4 4 4 4 4 4 4 4 4 5 5 5 6 6 6 6 6 6 6
6 6 6 6 5 6 6 5 5 5 5 5 5 5 5 4 4 4 4 4 5 5 5 5 6 6 6 7 7 7 8 9 9
5 6 6 6 6 5 5 5 5 5 5 4 4 4 3 3 4 4 4 6 7 8 8 9 10 9 9 9 10 10 7 7 9
5 6 6 6 7 6 7 6 6 5 5 3 3 4 4 5 5 6 7 8 9 9 10 9 8 8 8 8 5 5 5 4 7
5 5 6 6 6 6 6 5 4 4 4 4 4 5 6 6 8 8 8 9 10 10 9 8 7 7 7 4 5 3 4 3 3
5 5 6 6 6 6 6 5 5 5 5 5 6 6 6 7 8 8 8 9 8 8 8 7 6 6 6 6 4 4 4 4 4
5 5 6 6 6 6 6 6 5 6 6 6 7 7 7 8 7 8 8 8 7 8 7 6 6 6 6 6 6 5 5 6 6
5 5 5 6 6 6 6 6 6 6 6 7 7 7 7 7 7 7 7 7 7 7 7 7 6 6 6 6 7 7 6 6 7
5 5 5 6 6 6 6 6 6 5 6 6 7 6 6 7 7 7 8 7 7 6 5 6 6 6 6 6 6 6 6 7 7
6 5 5 6 6 6 6 6 6 6 6 6 6 6 7 7 8 8 8 7 6 6 6 6 5 5 5 6 7 7 6 6 6
6 5 5 5 6 6 6 6 6 6 6 6 6 6 6 7 8 7 7 6 6 6 5 5 5 5 5 6 6 6 6 6 6
6 6 6 6 6 6 6 6 6 6 6 5 5 6 6 6 6 6 6 6 6 5 5 5 5 6 6 6 6 7 6 6 6
6 6 6 6 6 6 6 6 6 6 6 5 5 5 5 5 5 5 6 6 6 6 6 6 6 6 6 5 5 5 5 5 5
7 6 7 7 7 6 6 6 6 5 5 5 5 5 4 5 4 4 5 6 7 7 6 7 6 6 5 6 6 6 6 6 6
6 7 7 7 7 7 6 6 7 7 6 5 4 4 4 5 5 5 5 6 8 8 8 8 7 7 7 6 6 6 6 6 6
6 7 7 7 7 7 7 6 7 7 6 5 4 5 5 5 5 6 6 8 8 8 7 7 7 6 6 6 5 5 4 4 4
6 7 7 8 8 7 7 7 7 7 6 5 4 7 5 6 7 7 7 8 8 7 5 5 4 4 3 3 3 3 4 5 5
6 7 8 9 8 8 7 7 7 7 6 5 4 6 6 6 8 7 8 7 5 4 4 3 4 4 5 6 8 9 8 8 7
6 7 8 9 9 8 7 8 7 7 6 5 6 7 7 7 7 5 4 3 4 5 5 6 7 9 9 8 8 9 8 8 7
Height
3178 3178 3178 3178 3178 3178 3178 3178 3177 3177 3177 3177 3177 3178 3178 3178 3177 3177 3176 3175 3175 3174 3173 3172 3171 3169 3168 3168 3167 3166 3165 3164 3163
3179 3179 3179 3179 3178 3178 3178 3178 3178 3177 3178 3178 3177 3178 3178 3177 3177 3176 3175 3174 3174 3173 3171 3170 3169 3168 3167 3166 3165 3164 3163 3162 3161
3180 3180 3179 3179 3179 3179 3179 3179 3179 3178 3178 3178 3177 3177 3177 3177 3176 3175 3174 3173 3172 3171 3170 3169 3168 3166 3165 3164 3163 3162 3161 3160 3159
3180 3180 3179 3179 3179 3179 3179 3179 3178 3179 3179 3178 3178 3177 3177 3176 3175 3174 3173 3172 3171 3170 3168 3168 3167 3165 3163 3162 3162 3161 3159 3158 3157
3179 3179 3179 3179 3179 3179 3179 3179 3178 3178 3179 3179 3178 3178 3177 3176 3175 3173 3172 3171 3170 3168 3166 3165 3164 3163 3161 3160 3160 3159 3158 3157 3156
3178 3178 3178 3178 3178 3179 3179 3178 3178 3178 3178 3178 3178 3177 3176 3175 3174 3172 3171 3169 3168 3166 3165 3163 3162 3161 3160 3158 3158 3157 3156 3155 3154
3177 3177 3177 3177 3177 3178 3178 3178 3177 3177 3177 3176 3176 3175 3173 3172 3171 3170 3168 3167 3165 3164 3163 3162 3161 3160 3159 3158 3156 3155 3154 3153 3152
3176 3176 3176 3176 3176 3177 3177 3176 3176 3175 3175 3174 3173 3172 3172 3171 3169 3168 3166 3165 3164 3163 3161 3160 3159 3158 3157 3157 3155 3154 3152 3151 3150
3176 3175 3175 3175 3175 3175 3175 3175 3174 3174 3173 3172 3171 3170 3170 3168 3167 3166 3164 3163 3162 3161 3160 3159 3158 3156 3155 3155 3153 3152 3150 3149 3148
3174 3174 3174 3174 3174 3174 3173 3173 3173 3172 3171 3170 3169 3168 3167 3166 3165 3164 3162 3161 3160 3159 3158 3157 3156 3155 3153 3152 3151 3149 3148 3147 3145
3172 3171 3171 3172 3172 3172 3171 3171 3171 3170 3169 3168 3167 3166 3165 3164 3163 3161 3160 3159 3157 3156 3155 3154 3153 3152 3150 3149 3148 3146 3145 3143 3142
3170 3169 3169 3170 3170 3169 3169 3169 3168 3168 3167 3166 3165 3164 3163 3162 3160 3159 3157 3156 3155 3154 3153 3151 3150 3148 3147 3146 3144 3143 3141 3139 3138
3168 3167 3167 3167 3167 3167 3167 3166 3166 3165 3165 3164 3163 3162 3160 3159 3158 3156 3155 3154 3152 3151 3150 3148 3146 3144 3143 3141 3140 3138 3137 3135 3134
3165 3165 3164 3164 3164 3164 3164 3163 3163 3162 3162 3161 3160 3158 3157 3156 3155 3153 3152 3150 3148 3147 3145 3144 3142 3140 3138 3136 3134 3133 3132 3130 3129
3163 3163 3162 3161 3161 3161 3160 3160 3160 3159 3158 3158 3157 3155 3154 3152 3151 3150 3147 3146 3144 3142 3141 3139 3137 3135 3133 3131 3129 3127 3126 3124 3123
3159 3159 3158 3157 3157 3157 3157 3157 3157 3156 3155 3154 3153 3151 3150 3148 3147 3145 3143 3141 3139 3138 3136 3134 3131 3129 3126 3124 3122 3120 3119 3117 3115
3155 3155 3154 3153 3153 3153 3152 3152 3152 3152 3151 3150 3148 3147 3147 3144 3142 3140 3138 3136 3134 3132 3130 3127 3125 3123 3121 3118 3115 3113 3111 3109 3107
3151 3151 3150 3149 3148 3148 3148 3147 3147 3147 3146 3145 3145 3143 3142 3139 3137 3135 3132 3130 3128 3126 3124 3120 3117 3115 3112 3110 3107 3104 3102 3100 3098
3146 3145 3145 3144 3143 3143 3143 3142 3142 3141 3141 3140 3139 3137 3136 3134 3132 3130 3126 3124 3122 3119 3117 3114 3110 3106 3103 3100 3097 3094 3092 3089 3087
3141 3140 3139 3138 3138 3138 3137 3137 3137 3136 3135 3134 3132 3130 3128 3126 3124 3122 3121 3118 3116 3113 3110 3106 3102 3097 3093 3090 3086 3083 3080 3078 3075